Time,TemperatureF,DewpointF,PressureIn,WindDirection,WindDirectionDegrees,WindSpeedMPH,WindSpeedGustMPH,Humidity,HourlyPrecipIn,Conditions,Clouds,dailyrainin,SolarRadiationWatts/m^2,SoftwareType,DateUTC
2013-01-01 00:11:00,29.0,-4.0,-100.00,NW,313,0.0,6.0,23,0.00,,,0.02,0.000000,,2013-01-01 08:11:00,
2013-01-01 01:11:00,30.0,-4.0,-100.00,NW,317,6.0,9.0,22,0.00,,,0.02,0.000000,,2013-01-01 09:11:00,
2013-01-01 02:12:00,31.0,-9.0,-100.00,North,357,7.0,11.0,17,0.00,,,0.02,0.000000,,2013-01-01 10:12:00,
2013-01-01 02:22:00,31.0,-9.0,-100.00,North,357,7.0,11.0,17,0.00,,,0.02,0.000000,,2013-01-01 10:22:00,
2013-01-01 03:12:00,31.0,-7.0,-100.00,NNW,335,7.0,13.0,18,0.00,,,0.02,0.000000,,2013-01-01 11:12:00,
2013-01-01 03:22:00,31.0,-7.0,-100.00,NNW,335,7.0,13.0,18,0.00,,,0.02,0.000000,,2013-01-01 11:22:00,
2013-01-01 04:12:00,33.0,-14.0,-100.00,NW,323,7.0,12.0,12,0.00,,,0.02,0.000000,,2013-01-01 12:12:00,
2013-01-01 04:22:00,33.0,-14.0,-100.00,NW,323,7.0,12.0,12,0.00,,,0.02,0.000000,,2013-01-01 12:22:00,
2013-01-01 05:12:00,32.0,-20.0,-100.00,NNE,23,3.0,11.0,9,0.00,,,0.02,0.000000,,2013-01-01 13:12:00,
2013-01-01 05:22:00,32.0,-20.0,-100.00,NNE,23,3.0,11.0,9,0.00,,,0.02,0.000000,,2013-01-01 13:22:00,
2013-01-01 06:12:00,29.0,-10.0,-100.00,SW,228,0.0,8.0,17,0.00,,,0.02,0.000000,,2013-01-01 14:12:00,
2013-01-01 06:22:00,29.0,-10.0,-100.00,SW,228,0.0,8.0,17,0.00,,,0.02,0.000000,,2013-01-01 14:22:00,
2013-01-01 07:12:00,23.0,1.0,-100.00,SE,141,1.0,6.0,37,0.00,,,0.02,0.000000,,2013-01-01 15:12:00,
2013-01-01 07:22:00,23.0,1.0,-100.00,SE,141,1.0,6.0,37,0.00,,,0.02,0.000000,,2013-01-01 15:22:00,
2013-01-01 07:51:00,23.0,3.0,-100.00,SSE,147,0.0,5.0,42,0.00,,,0.02,21.000000,,2013-01-01 15:51:00,
2013-01-01 08:12:00,23.0,3.0,-100.00,SSE,147,0.0,5.0,42,0.00,,,0.02,21.000000,,2013-01-01 16:12:00,
2013-01-01 08:22:00,23.0,3.0,-100.00,SSE,147,0.0,5.0,42,0.00,,,0.02,21.000000,,2013-01-01 16:22:00,
2013-01-01 08:42:00,23.0,3.0,-100.00,SSE,147,0.0,5.0,42,0.00,,,0.02,21.000000,,2013-01-01 16:42:00,
2013-01-01 08:51:00,25.0,6.0,-100.00,SE,127,2.0,5.0,44,0.00,,,0.02,109.000000,,2013-01-01 16:51:00,
2013-01-01 09:22:00,25.0,6.0,-100.00,SE,127,2.0,5.0,44,0.00,,,0.02,109.000000,,2013-01-01 17:22:00,
2013-01-01 09:33:00,25.0,6.0,-100.00,SE,127,2.0,5.0,44,0.00,,,0.02,109.000000,,2013-01-01 17:33:00,
2013-01-01 09:42:00,25.0,6.0,-100.00,SE,127,2.0,5.0,44,0.00,,,0.02,109.000000,,2013-01-01 17:42:00,
2013-01-01 09:51:00,27.0,6.0,-100.00,ESE,109,0.0,9.0,41,0.00,,,0.02,230.000000,,2013-01-01 17:51:00,
2013-01-01 10:12:00,27.0,6.0,-100.00,ESE,109,0.0,9.0,41,0.00,,,0.02,230.000000,,2013-01-01 18:12:00,
2013-01-01 10:22:00,27.0,6.0,-100.00,ESE,109,0.0,9.0,41,0.00,,,0.02,230.000000,,2013-01-01 18:22:00,
2013-01-01 10:33:00,27.0,6.0,-100.00,ESE,109,0.0,9.0,41,0.00,,,0.02,230.000000,,2013-01-01 18:33:00,
2013-01-01 10:42:00,27.0,6.0,-100.00,ESE,109,0.0,9.0,41,0.00,,,0.02,230.000000,,2013-01-01 18:42:00,
2013-01-01 10:51:00,32.0,9.0,-100.00,ESE,114,1.0,8.0,38,0.00,,,0.02,537.000000,,2013-01-01 18:51:00,
2013-01-01 11:22:00,32.0,9.0,-100.00,ESE,114,1.0,8.0,38,0.00,,,0.02,537.000000,,2013-01-01 19:22:00,
2013-01-01 11:32:00,32.0,9.0,-100.00,ESE,114,1.0,8.0,38,0.00,,,0.02,537.000000,,2013-01-01 19:32:00,
2013-01-01 11:42:00,32.0,9.0,-100.00,ESE,114,1.0,8.0,38,0.00,,,0.02,537.000000,,2013-01-01 19:42:00,
2013-01-01 11:51:00,32.0,13.0,-100.00,ESE,102,1.0,9.0,45,0.00,,,0.02,478.000000,,2013-01-01 19:51:00,
2013-01-01 12:22:00,32.0,13.0,-100.00,ESE,102,1.0,9.0,45,0.00,,,0.02,478.000000,,2013-01-01 20:22:00,
2013-01-01 12:32:00,32.0,13.0,-100.00,ESE,102,1.0,9.0,45,0.00,,,0.02,478.000000,,2013-01-01 20:32:00,
2013-01-01 12:42:00,32.0,13.0,-100.00,ESE,102,1.0,9.0,45,0.00,,,0.02,478.000000,,2013-01-01 20:42:00,
2013-01-01 12:51:00,27.0,8.0,-100.00,East,93,2.0,9.0,43,0.00,,,0.01,387.000000,,2013-01-01 20:51:00,
2013-01-01 13:12:00,27.0,8.0,-100.00,East,93,2.0,9.0,43,0.00,,,0.01,387.000000,,2013-01-01 21:12:00,
2013-01-01 13:22:00,27.0,8.0,-100.00,East,93,2.0,9.0,43,0.00,,,0.01,387.000000,,2013-01-01 21:22:00,
2013-01-01 13:32:00,27.0,8.0,-100.00,East,93,2.0,9.0,43,0.00,,,0.01,387.000000,,2013-01-01 21:32:00,
2013-01-01 13:42:00,27.0,8.0,-100.00,East,93,2.0,9.0,43,0.00,,,0.01,387.000000,,2013-01-01 21:42:00,
2013-01-01 13:51:00,26.0,11.0,-100.00,ENE,66,5.0,11.0,52,0.00,,,0.01,239.000000,,2013-01-01 21:51:00,
2013-01-01 14:12:00,26.0,11.0,-100.00,ENE,66,5.0,11.0,52,0.00,,,0.01,239.000000,,2013-01-01 22:12:00,
2013-01-01 14:22:00,26.0,11.0,-100.00,ENE,66,5.0,11.0,52,0.00,,,0.01,239.000000,,2013-01-01 22:22:00,
2013-01-01 14:32:00,26.0,11.0,-100.00,ENE,66,5.0,11.0,52,0.00,,,0.01,239.000000,,2013-01-01 22:32:00,
2013-01-01 14:42:00,26.0,11.0,-100.00,ENE,66,5.0,11.0,52,0.00,,,0.01,239.000000,,2013-01-01 22:42:00,
2013-01-01 14:51:00,30.0,6.0,-100.00,NE,55,5.0,11.0,35,0.00,,,0.00,403.000000,,2013-01-01 22:51:00,
2013-01-01 15:12:00,30.0,6.0,-100.00,NE,55,5.0,11.0,35,0.00,,,0.00,403.000000,,2013-01-01 23:12:00,
2013-01-01 15:22:00,30.0,6.0,-100.00,NE,55,5.0,11.0,35,0.00,,,0.00,403.000000,,2013-01-01 23:22:00,
2013-01-01 15:32:00,30.0,6.0,-100.00,NE,55,5.0,11.0,35,0.00,,,0.00,403.000000,,2013-01-01 23:32:00,
2013-01-01 15:42:00,30.0,6.0,-100.00,NE,55,5.0,11.0,35,0.00,,,0.00,403.000000,,2013-01-01 23:42:00,
2013-01-01 15:51:00,27.0,3.0,-100.00,NE,52,4.0,13.0,35,0.00,,,0.00,182.000000,,2013-01-01 23:51:00,
2013-01-01 16:12:00,27.0,3.0,-100.00,NE,52,4.0,13.0,35,0.00,,,0.00,182.000000,,2013-01-02 00:12:00,
2013-01-01 16:22:00,27.0,3.0,-100.00,NE,52,4.0,13.0,35,0.00,,,0.00,182.000000,,2013-01-02 00:22:00,
2013-01-01 16:32:00,27.0,3.0,-100.00,NE,52,4.0,13.0,35,0.00,,,0.00,182.000000,,2013-01-02 00:32:00,
2013-01-01 16:42:00,27.0,3.0,-100.00,NE,52,4.0,13.0,35,0.00,,,0.00,182.000000,,2013-01-02 00:42:00,
2013-01-01 16:51:00,26.0,0.0,-100.00,NE,45,4.0,12.0,31,0.00,,,0.00,28.000000,,2013-01-02 00:51:00,
2013-01-01 17:12:00,26.0,0.0,-100.00,NE,45,4.0,12.0,31,0.00,,,0.00,28.000000,,2013-01-02 01:12:00,
2013-01-01 17:22:00,26.0,0.0,-100.00,NE,45,4.0,12.0,31,0.00,,,0.00,28.000000,,2013-01-02 01:22:00,
2013-01-01 17:32:00,26.0,0.0,-100.00,NE,45,4.0,12.0,31,0.00,,,0.00,28.000000,,2013-01-02 01:32:00,
2013-01-01 17:42:00,26.0,0.0,-100.00,NE,45,4.0,12.0,31,0.00,,,0.00,28.000000,,2013-01-02 01:42:00,
2013-01-01 17:51:00,26.0,-1.0,-100.00,NE,44,5.0,8.0,30,0.00,,,0.00,0.000000,,2013-01-02 01:51:00,
2013-01-01 18:12:00,26.0,-1.0,-100.00,NE,44,5.0,8.0,30,0.00,,,0.00,0.000000,,2013-01-02 02:12:00,
2013-01-01 18:22:00,26.0,-1.0,-100.00,NE,44,5.0,8.0,30,0.00,,,0.00,0.000000,,2013-01-02 02:22:00,
2013-01-01 18:32:00,26.0,-1.0,-100.00,NE,44,5.0,8.0,30,0.00,,,0.00,0.000000,,2013-01-02 02:32:00,
2013-01-01 18:42:00,26.0,-1.0,-100.00,NE,44,5.0,8.0,30,0.00,,,0.00,0.000000,,2013-01-02 02:42:00,
2013-01-01 18:51:00,26.0,0.0,-100.00,NE,44,7.0,20.0,32,0.00,,,0.00,0.000000,,2013-01-02 02:51:00,
2013-01-01 19:11:00,26.0,0.0,-100.00,NE,44,7.0,20.0,32,0.00,,,0.00,0.000000,,2013-01-02 03:11:00,
2013-01-01 19:22:00,26.0,0.0,-100.00,NE,44,7.0,20.0,32,0.00,,,0.00,0.000000,,2013-01-02 03:22:00,
2013-01-01 19:32:00,26.0,0.0,-100.00,NE,44,7.0,20.0,32,0.00,,,0.00,0.000000,,2013-01-02 03:32:00,
2013-01-01 19:42:00,26.0,0.0,-100.00,NE,44,7.0,20.0,32,0.00,,,0.00,0.000000,,2013-01-02 03:42:00,
2013-01-01 19:51:00,27.0,-1.0,-100.00,NE,45,9.0,25.0,29,0.00,,,0.00,0.000000,,2013-01-02 03:51:00,
2013-01-01 20:12:00,27.0,-1.0,-100.00,NE,45,9.0,25.0,29,0.00,,,0.00,0.000000,,2013-01-02 04:12:00,
2013-01-01 20:22:00,27.0,-1.0,-100.00,NE,45,9.0,25.0,29,0.00,,,0.00,0.000000,,2013-01-02 04:22:00,
2013-01-01 20:32:00,27.0,-1.0,-100.00,NE,45,9.0,25.0,29,0.00,,,0.00,0.000000,,2013-01-02 04:32:00,
2013-01-01 20:42:00,27.0,-1.0,-100.00,NE,45,9.0,25.0,29,0.00,,,0.00,0.000000,,2013-01-02 04:42:00,
2013-01-01 20:51:00,27.0,-2.0,-100.00,NE,49,9.0,26.0,28,0.00,,,0.00,0.000000,,2013-01-02 04:51:00,
2013-01-01 21:12:00,27.0,-2.0,-100.00,NE,49,9.0,26.0,28,0.00,,,0.00,0.000000,,2013-01-02 05:12:00,
2013-01-01 21:22:00,27.0,-2.0,-100.00,NE,49,9.0,26.0,28,0.00,,,0.00,0.000000,,2013-01-02 05:22:00,
2013-01-01 21:32:00,27.0,-2.0,-100.00,NE,49,9.0,26.0,28,0.00,,,0.00,0.000000,,2013-01-02 05:32:00,
2013-01-01 21:42:00,27.0,-2.0,-100.00,NE,49,9.0,26.0,28,0.00,,,0.00,0.000000,,2013-01-02 05:42:00,
2013-01-01 21:51:00,28.0,1.0,-100.00,NE,51,8.0,23.0,30,0.00,,,-99.99,0.000000,,2013-01-02 05:51:00,
2013-01-01 22:22:00,28.0,1.0,-100.00,NE,51,8.0,23.0,30,0.00,,,-99.99,0.000000,,2013-01-02 06:22:00,
2013-01-01 22:32:00,28.0,1.0,-100.00,NE,51,8.0,23.0,30,0.00,,,-99.99,0.000000,,2013-01-02 06:32:00,
2013-01-01 22:42:00,28.0,1.0,-100.00,NE,51,8.0,23.0,30,0.00,,,-99.99,0.000000,,2013-01-02 06:42:00,
2013-01-01 22:51:00,29.0,1.0,-100.00,NE,51,6.0,18.0,29,0.00,,,0.00,0.000000,,2013-01-02 06:51:00,
2013-01-01 23:12:00,29.0,1.0,-100.00,NE,51,6.0,18.0,29,0.00,,,0.00,0.000000,,2013-01-02 07:12:00,
2013-01-01 23:22:00,29.0,1.0,-100.00,NE,51,6.0,18.0,29,0.00,,,0.00,0.000000,,2013-01-02 07:22:00,
2013-01-01 23:32:00,29.0,1.0,-100.00,NE,51,6.0,18.0,29,0.00,,,0.00,0.000000,,2013-01-02 07:32:00,
2013-01-01 23:42:00,29.0,1.0,-100.00,NE,51,6.0,18.0,29,0.00,,,0.00,0.000000,,2013-01-02 07:42:00,
2013-01-01 23:51:00,28.0,0.0,-100.00,NE,51,6.0,21.0,29,0.00,,,0.00,0.000000,,2013-01-02 07:51:00,